This is the latest recevied weather packets stored in our database for station/object KC9MWQ-13. If no packets are shown the sender has not sent any weather packets the latest 10 day(s).
| Time | Temp. | Humidity | Pressure | Rain* | Wind** | Luminosity | Snow |
|---|---|---|---|---|---|---|---|
| 1777629888 | 7.78° C | 99% | 1012.4 hPa | 1.27 mm | - | 0 W/m² | - |
| 1777629585 | 7.78° C | 99% | 1012.5 hPa | 1.27 mm | - | 0 W/m² | - |
| 1777629281 | 7.78° C | 99% | 1012.4 hPa | 1.78 mm | - | 0 W/m² | - |
| 1777628977 | 7.78° C | 99% | 1012.5 hPa | 3.05 mm | - | 0 W/m² | - |
| 1777628675 | 7.78° C | 99% | 1012.5 hPa | 3.05 mm | - | 0 W/m² | - |
| 1777628371 | 7.78° C | 99% | 1012.6 hPa | 4.83 mm | - | 0 W/m² | - |
| 1777628066 | 7.78° C | 99% | 1012.8 hPa | 4.83 mm | - | 0 W/m² | - |
| 1777627766 | 7.78° C | 99% | 1013 hPa | 4.83 mm | - | 0 W/m² | - |
| 1777627460 | 7.78° C | 99% | 1013 hPa | 7.87 mm | - | 0 W/m² | - |
| 1777627156 | 8.33° C | 99% | 1012.9 hPa | 7.87 mm | - | 0 W/m² | - |
| 1777626853 | 8.33° C | 99% | 1013 hPa | 6.1 mm | - | 0 W/m² | - |
| 1777626550 | 8.33° C | 99% | 1013 hPa | 3.05 mm | - | 0 W/m² | - |
| 1777626244 | 8.33° C | 99% | 1012.9 hPa | 1.78 mm | - | 0 W/m² | - |
| 1777625943 | 8.33° C | 99% | 1013 hPa | 0 mm | - | 0 W/m² | - |
| 1777625638 | 8.33° C | 99% | 1013.1 hPa | 0 mm | - | 0 W/m² | - |
| 1777625334 | 8.33° C | 99% | 1012.9 hPa | 0 mm | - | 0 W/m² | - |
| 1777625031 | 8.33° C | 99% | 1012.7 hPa | 0 mm | - | 0 W/m² | - |
| 1777624727 | 8.33° C | 99% | 1012.9 hPa | 0 mm | - | 0 W/m² | - |
| 1777624423 | 8.33° C | 99% | 1012.9 hPa | 0 mm | - | 0 W/m² | - |
| 1777624120 | 8.33° C | 99% | 1013 hPa | 0 mm | - | 0 W/m² | - |
| 1777623817 | 8.33° C | 99% | 1013 hPa | 0 mm | - | 0 W/m² | - |
| 1777623513 | 8.33° C | 99% | 1013.2 hPa | 1.27 mm | - | 0 W/m² | - |
| 1777623212 | 8.33° C | 99% | 1013.2 hPa | 3.05 mm | - | 0 W/m² | - |
| 1777622908 | 8.33° C | 99% | 1013.5 hPa | 1.78 mm | - | 0 W/m² | - |
| 1777622604 | 8.33° C | 99% | 1013.3 hPa | 1.78 mm | - | 0 W/m² | - |
* Rain latest hour (hover to see other rain measurements)
** Current wind speed in m/s (hover to see current wind gust speed)